This is the latest recevied weather packets stored in our database for station/object KN6WGU. If no packets are shown the sender has not sent any weather packets the latest 10 day(s).
| Time | Temp. | Humidity | Pressure | Rain* | Wind** | Luminosity | Snow |
|---|---|---|---|---|---|---|---|
| 1787706490 | 19.44° C | 80% | 1011.9 hPa | 0 mm | - | 0 W/m² | - |
| 1787706185 | 19.44° C | 80% | 1012 hPa | 0 mm | - | 0 W/m² | - |
| 1787705880 | 20° C | 79% | 1011.8 hPa | 0 mm | - | 0 W/m² | - |
| 1787705575 | 20° C | 76% | 1011.7 hPa | 0 mm | - | 0 W/m² | - |
| 1787705272 | 20° C | 75% | 1011.6 hPa | 0 mm | - | 0 W/m² | - |
| 1787704967 | 20° C | 74% | 1011.5 hPa | 0 mm | - | 0 W/m² | - |
| 1787704663 | 20° C | 73% | 1011.3 hPa | 0 mm | - | 0 W/m² | - |
| 1787704359 | 20.56° C | 74% | 1011.5 hPa | 0 mm | - | 0 W/m² | - |
| 1787704058 | 20.56° C | 72% | 1011.2 hPa | 0 mm | - | 0 W/m² | - |
| 1787703757 | 20.56° C | 72% | 1011.3 hPa | 0 mm | - | 1 W/m² | - |
| 1787703453 | 20.56° C | 72% | 1011.3 hPa | 0 mm | - | 2 W/m² | - |
| 1787703148 | 21.11° C | 71% | 1011.2 hPa | 0 mm | - | 3 W/m² | - |
| 1787702843 | 21.11° C | 70% | 1011.3 hPa | 0 mm | - | 5 W/m² | - |
| 1787702539 | 21.11° C | 69% | 1011.5 hPa | 0 mm | - | 8 W/m² | - |
| 1787702234 | 21.67° C | 69% | 1011.5 hPa | 0 mm | - | 11 W/m² | - |
| 1787701928 | 21.67° C | 68% | 1011.3 hPa | 0 mm | - | 14 W/m² | - |
| 1787701625 | 21.67° C | 68% | 1011.2 hPa | 0 mm | - | 16 W/m² | - |
| 1787701320 | 22.22° C | 67% | 1011.2 hPa | 0 mm | - | 19 W/m² | - |
| 1787701016 | 22.22° C | 66% | 1011.3 hPa | 0 mm | - | 23 W/m² | - |
| 1787700710 | 22.78° C | 66% | 1011.3 hPa | 0 mm | - | 28 W/m² | - |
| 1787700407 | 22.78° C | 65% | 1011.5 hPa | 0 mm | - | 33 W/m² | - |
| 1787700103 | 23.33° C | 65% | 1011.5 hPa | 0 mm | - | 36 W/m² | - |
| 1787699798 | 23.33° C | 62% | 1011.3 hPa | 0 mm | - | 42 W/m² | - |
| 1787699494 | 23.89° C | 63% | 1011.3 hPa | 0 mm | - | 48 W/m² | - |
| 1787699190 | 23.89° C | 61% | 1011.3 hPa | 0 mm | - | 54 W/m² | - |
* Rain latest hour (hover to see other rain measurements)
** Current wind speed in m/s (hover to see current wind gust speed)